This demonstration page uses our WeatherBlox Daily Observations layout. Learn more.

Left ArrowRight Arrow

31.84235, -102.49876

Hourly Observations for May 23, 2015

Temp ( °F °C ) Dew Point ( °F °C ) Humidity (%) Winds ( mph kmh ) Pressure ( in mb ) Visibility ( mi km ) Precip ( " mm )
12:11 am 00:11 Mostly Cloudy 70 21.1 63 17.2 79 79 SE 22 35 29.85 1011 10 16 0.00 0.00
12:53 am 00:53 Cloudy 70 21.1 64 17.8 82 82 SSE 17 28 29.87 1011 10 16 0.00 0.00
1:53 am 01:53 Cloudy 70 21.1 64 17.8 82 82 S 20 31 29.87 1012 10 16 0.00 0.00
2:53 am 02:53 Cloudy with Nearby Thunderstorms 71 21.7 64 17.8 79 79 S 18 30 29.86 1011 10 16 0.00 0.00
3:31 am 03:31 Cloudy with Light Rain 70 21.1 65 18.3 84 84 SSE 10 17 29.85 1011 10 16 0.01 0.25
3:51 am 03:51 Mostly Cloudy with Light Rain 70 21 64 18 83 83 SSE 14 22 29.85 1011 10 16 0.01 0.25
3:53 am 03:53 Partly Cloudy with Light Rain 70 21.1 64 17.8 82 82 SSE 13 20 29.84 1010 10 16 0.01 0.25
4:53 am 04:53 Clear 69 20.6 64 17.8 84 84 SSE 9 15 29.83 1010 9 14 0.00 0.03
5:53 am 05:53 Clear 67 19.4 63 17.2 87 87 SSE 8 13 29.83 1010 9 14 0.00 0.00
6:53 am 06:53 Sunny 67 19.4 63 17.2 87 87 SE 10 17 29.84 1011 8 13 0.00 0.00
7:53 am 07:53 Sunny 68 20 62 16.7 81 81 SSE 20 31 29.86 1011 9 14 0.00 0.00
8:53 am 08:53 Sunny 69 20.6 63 17.2 81 81 S 21 33 29.88 1012 10 16 0.00 0.00
9:53 am 09:53 Sunny 75 23.9 63 17.2 66 66 S 25 41 29.88 1012 9 14 0.00 0.00
10:53 am 10:53 Sunny 75 23.9 62 16.7 64 64 SSW 18 30 29.87 1012 9 14 0.00 0.00
11:53 am 11:53 Sunny 76 24.4 62 16.7 62 62 SSW 16 26 29.86 1011 10 16 0.00 0.00
12:53 pm 12:53 Sunny 77 25 59 15 54 54 SSW 13 20 29.84 1011 10 16 0.00 0.00
1:53 pm 13:53 Sunny 81 27.2 53 11.7 38 38 S 23 37 29.80 1009 10 16 0.00 0.00
2:53 pm 14:53 Sunny 85 29.4 57 13.9 39 39 S 17 28 29.75 1007 10 16 0.00 0.00
3:50 pm 15:50 Cloudy with Nearby Thunderstorms 81 27 59 15 48 48 S 30 48 29.65 1004 10 16 0.00 0.00
3:53 pm 15:53 Cloudy with Nearby Thunderstorms 80 26.7 60 15.6 51 51 S 29 46 29.73 1007 10 16 0.00 0.00
4:20 pm 16:20 Cloudy with Thunderstorms 68 20 57 13.9 68 68 W 17 28 29.83 1010 5 8 0.01 0.25
4:23 pm 16:23 Cloudy with Strong Thunderstorms 64 17.8 58 14.4 81 81 W 20 31 29.85 1011 2 2 0.07 1.78
4:27 pm 16:27 Cloudy with Strong Thunderstorms 62 16.7 58 14.4 86 86 NW 21 33 29.85 1011 1 1 0.16 4.06
4:37 pm 16:37 Partly Cloudy with Thunderstorms 62 16.7 58 14.4 86 86 undefined N/A 29.88 1012 N/A 0.19 4.83
4:53 pm 16:53 Partly Cloudy with Thunderstorms N/A N/A N/A undefined N/A N/A N/A 0.19 4.83
5:13 pm 17:13 Partly Cloudy with Nearby Thunderstorms N/A N/A N/A undefined N/A N/A N/A 0.00 0.00
5:44 pm 17:44 undefined N/A N/A N/A undefined N/A N/A N/A 0.00 0.00
5:53 pm 17:53 undefined N/A N/A N/A undefined N/A N/A N/A 0.00 0.00
6:17 pm 18:17 Partly Cloudy with Nearby Thunderstorms N/A N/A N/A undefined N/A N/A N/A 0.00 0.00
6:31 pm 18:31 Partly Cloudy with Thunderstorms N/A N/A N/A undefined N/A N/A N/A 0.00 0.00
6:46 pm 18:46 Partly Cloudy with Nearby Thunderstorms N/A N/A N/A undefined N/A N/A N/A 0.00 0.00
6:53 pm 18:53 Partly Cloudy with Thunderstorms N/A N/A N/A undefined N/A N/A N/A 0.00 0.00
7:12 pm 19:12 Partly Cloudy with Nearby Thunderstorms N/A N/A N/A undefined N/A N/A N/A 0.00 0.00
7:24 pm 19:24 undefined N/A N/A N/A undefined N/A N/A N/A 0.00 0.00
7:53 pm 19:53 undefined N/A N/A N/A undefined N/A N/A N/A 0.00 0.00
8:53 pm 20:53 undefined N/A N/A N/A undefined N/A N/A N/A 0.00 0.00
9:53 pm 21:53 undefined N/A N/A N/A undefined N/A N/A N/A 0.00 0.00
10:53 pm 22:53 undefined N/A N/A N/A undefined N/A N/A N/A 0.00 0.00
11:53 pm 23:53 undefined N/A N/A N/A undefined N/A N/A N/A 0.00 0.00

Powered by AerisWeather